This is the latest recevied weather packets stored in our database for station/object K0QJ. If no packets are shown the sender has not sent any weather packets the latest 10 day(s).
| Time | Temp. | Humidity | Pressure | Rain* | Wind** | Luminosity | Snow |
|---|---|---|---|---|---|---|---|
| 1777672791 | 17.78° C | 32% | 1014.7 hPa | 0 mm | - | 52 W/m² | - |
| 1777672488 | 17.78° C | 33% | 1014.9 hPa | 0 mm | - | 73 W/m² | - |
| 1777672183 | 17.78° C | 33% | 1015 hPa | 0 mm | - | 56 W/m² | - |
| 1777671879 | 17.78° C | 32% | 1015 hPa | 0 mm | - | 60 W/m² | - |
| 1777671575 | 17.78° C | 35% | 1015 hPa | 0 mm | - | 60 W/m² | - |
| 1777671272 | 17.22° C | 38% | 1015.1 hPa | 0 mm | - | 108 W/m² | - |
| 1777670967 | 17.22° C | 37% | 1015.3 hPa | 0 mm | - | 127 W/m² | - |
| 1777670665 | 17.22° C | 39% | 1015.2 hPa | 0 mm | - | 98 W/m² | - |
| 1777670361 | 17.78° C | 37% | 1015.3 hPa | 0 mm | - | 117 W/m² | - |
| 1777670059 | 18.33° C | 35% | 1015.6 hPa | 0 mm | - | 159 W/m² | - |
| 1777669756 | 18.33° C | 37% | 1015.5 hPa | 0 mm | - | 122 W/m² | - |
| 1777669452 | 18.33° C | 35% | 1015.4 hPa | 0 mm | - | 157 W/m² | - |
| 1777669149 | 17.78° C | 37% | 1015.7 hPa | 0 mm | - | 188 W/m² | - |
| 1777668846 | 17.78° C | 36% | 1016 hPa | 0 mm | - | 163 W/m² | - |
| 1777668543 | 17.22° C | 37% | 1015.9 hPa | 0 mm | - | 196 W/m² | - |
| 1777668239 | 17.22° C | 38% | 1016.1 hPa | 0 mm | - | 102 W/m² | - |
| 1777667935 | 17.22° C | 37% | 1015.7 hPa | 0 mm | - | 84 W/m² | - |
| 1777667633 | 17.78° C | 37% | 1016 hPa | 0 mm | - | 117 W/m² | - |
| 1777667330 | 17.78° C | 38% | 1016.2 hPa | 0 mm | - | 193 W/m² | - |
| 1777667027 | 17.78° C | 37% | 1016 hPa | 0 mm | - | 502 W/m² | - |
| 1777666723 | 17.78° C | 38% | 1016.3 hPa | 0 mm | - | 113 W/m² | - |
| 1777666420 | 18.89° C | 36% | 1016.2 hPa | 0 mm | - | 174 W/m² | - |
| 1777666117 | 20° C | 36% | 1016.4 hPa | 0 mm | - | 248 W/m² | - |
| 1777665814 | 18.89° C | 35% | 1016.2 hPa | 0 mm | - | 806 W/m² | - |
| 1777665512 | 18.33° C | 36% | 1016.4 hPa | 0 mm | - | 777 W/m² | - |
* Rain latest hour (hover to see other rain measurements)
** Current wind speed in m/s (hover to see current wind gust speed)